Location: Newark
(3.1475°N, 101.6933°E)
Time: 09:03:50
(UTC+00:00)

Hubble Space Telescope - Pass Details

Date: 18 October 2019
Orbit: 536 x 540 km, 28.5° (Epoch: 20 November)

Event Time Altitude Azimuth Distance (km) Brightness Sun altitude
Rises 12:04:36 0° 288° (WNW) 2,673 5.5 -16.8°
Reaches altitude 10° 12:06:57 10° 281° (W) 1,783 4.5 -17.4°
Maximum altitude 12:10:50 40° 211° (SSW) 793 1.9 -18.4°
Enters shadow 12:13:29 18° 148° (SSE) 1,343 2.6 -19.0°
